Regional Weather Roundup
Issued by NWS Northern Indiana

Home | Current Version | Previous Version | Text Only | Print | Product List | Glossary On
Versions: 1 2 3 4 5 6 7 8 9 10 11 12 13 14 15 16 17 18 19 20 21 22 23 24 25 26 27 28 29 30 31 32 33 34 35 36 37 38 39 40 41 42 43 44 45 46 47 48 49 50
000
ASUS43 KIWX 291810
RWRIWX

KIWX WEATHER ROUNDUP
NATIONAL WEATHER SERVICE NORTHERN INDIANA
100 PM EST THU JAN 29 2015

NOTE: "FAIR" INDICATES FEW OR NO CLOUDS BELOW 12,000 FEET WITH NO
SIGNIFICANT WEATHER AND/OR OBSTRUCTIONS TO VISIBILITY.

* THESE STATIONS ARE NOT UNDER NWS QUALITY CONTROL. THEY ALSO MAY NOT
  REPORT WEATHER SUCH AS PRECIPITATION OR FOG.

INZ001>027-291900-
NORTHERN INDIANA

CITY           SKY/WX    TMP DP  RH WIND       PRES   REMARKS
GARY*          CLOUDY    36  39 100 NW21G36   29.92R
VALPARAISO     CLOUDY    33  27  78 NW18G28   29.88R HAZE    WCI  22
6HR MIN TEMP:  33; 6HR MAX TEMP:  36;

MICHIGAN CITY* CLOUDY    32  27  80 NW13G24   29.88R WCI  22
LAPORTE*       LGT RAIN  34  32  92 NW17G28   29.87R WCI  24
6HR MIN TEMP:  34; 6HR MAX TEMP:  38;

KNOX*          CLOUDY    33  23  67 NW20G26   29.86R WCI  21
6HR MIN TEMP:  -9; 6HR MAX TEMP:  81;

SOUTH BEND     CLOUDY    35  30  82 NW18G24   29.84R HAZE    WCI  24
6HR MIN TEMP:  35; 6HR MAX TEMP:  37; 6HR PCP: TRACE;

ELKHART*       LGT RAIN  36  28  75 NW10G20   29.81R
GOSHEN         CLOUDY    35  30  82 NW18      29.79R WCI  24
6HR MIN TEMP:  35; 6HR MAX TEMP:  37; 6HR PCP: TRACE;

MONTICELLO*    CLOUDY    33  32  93 NW16      29.88R FOG     WCI  23
6HR MIN TEMP:  33; 6HR MAX TEMP:  39;

LOGANSPORT*    CLOUDY    32  32 100 NW13G18   29.87R FOG     WCI  22
ROCHESTER*     CLOUDY    36  34  93 NW12G22   29.83R FOG
WARSAW*        CLOUDY    34  32  93 NW16G23   29.80R FOG     WCI  23
ANGOLA*        CLOUDY    36  30  80 NW12      29.74R
FORT WAYNE     CLOUDY    38  32  79 W17G24    29.77R
6HR MIN TEMP:  34; 6HR MAX TEMP:  39; 6HR PCP: TRACE;

HUNTINGTON*    CLOUDY    36  28  72 NW14G23   29.78R
6HR MIN TEMP:  36; 6HR MAX TEMP:  40;

PERU/GRISSOM   DRIZZLE   34  31  89 NW18G28   29.84R FOG     WCI  23
6HR MIN TEMP:  34; 6HR MAX TEMP:  38; 6HR PCP: TRACE;

MARION*        CLOUDY    35  33  94 W20       29.81R FOG     WCI  24
6HR MIN TEMP:  -2; 6HR MAX TEMP:  46;


$$
INZ028>050-291900-
CENTRAL INDIANA

CITY           SKY/WX    TMP DP  RH WIND       PRES   REMARKS
LAFAYETTE      CLOUDY    33  31  92 W14       29.91R FOG     WCI  23
6HR MIN TEMP:  33; 6HR MAX TEMP:  42;

KOKOMO*        CLOUDY    36  30  80 NW22      29.84R
6HR MIN TEMP:  36; 6HR MAX TEMP:  39;

MUNCIE*        CLOUDY    37  34  89 W21G29    29.80R FOG
6HR MIN TEMP:  37; 6HR MAX TEMP:  42;

INDIANAPOLIS   DRIZZLE   33  32  96 W23G33    29.91R FOG     WCI  21
6HR MIN TEMP:  33; 6HR MAX TEMP:  45; 6HR PCP: TRACE;


$$
MIZ043>046-050>051-056>058-064>065-071>073-077>080-291900-
SOUTHWEST LOWER MICHIGAN

CITY           SKY/WX    TMP DP  RH WIND       PRES   REMARKS
BATTLE CREEK   LGT SNOW  33  30  88 NW10      29.76S VSB 1   WCI  25
6HR MIN TEMP:  33; 6HR MAX TEMP:  36; 6HR PCP:  0.02;

BENTON HARBOR  CLOUDY    33  31  92 NW13G25   29.84R FOG     WCI  24
6HR MIN TEMP:  33; 6HR MAX TEMP:  36; 6HR PCP:  0.01;

COLDWATER*     LGT SNOW  34  30  85 NW9       29.74R WCI  26
6HR MIN TEMP:  31; 6HR MAX TEMP:  35;

HILLSDALE*     CLOUDY    35  32  87 NW9       29.71S WCI  28
6HR MIN TEMP:  29; 6HR MAX TEMP:  35;

HOLLAND        LGT SNOW  34  29  82 NW14      29.82R WCI  25
6HR MIN TEMP:  32; 6HR MAX TEMP:  34; 6HR PCP:  0.02;

GRAND RAPIDS   LGT SNOW  32  28  85 NW13      29.78S FOG     WCI  22
6HR MIN TEMP:  30; 6HR MAX TEMP:  32; 6HR PCP:  0.03;

KALAMAZOO      LGT SNOW  34  30  85 NW13      29.77S FOG     WCI  25
6HR MIN TEMP:  32; 6HR MAX TEMP:  34; 6HR PCP:  0.02;

STURGIS*       LGT SNOW  34  30  86 NW5       29.76R WCI  30
THREE RIVERS*  LGT SNOW  35  32  89 NW9       29.78R VSB 1   WCI  27
6HR MIN TEMP:  32; 6HR MAX TEMP:  36;


$$
OHZ001>008-015>018-024>025-291900-
NORTHWEST OHIO

CITY           SKY/WX    TMP DP  RH WIND       PRES   REMARKS
WAUSEON*       LGT RAIN  36  34  93 W8        29.72S
DEFIANCE       CLOUDY   N/A N/A N/A SW6       29.74S
FINDLAY        CLOUDY    40  32  73 SW14      29.72F
6HR MIN TEMP:  32; 6HR MAX TEMP:  40; 6HR PCP: TRACE;

TOLEDO EXPRESS LGT RAIN  36  32  85 SW9       29.72S
6HR MIN TEMP:  29; 6HR MAX TEMP:  38; 6HR PCP:  0.02;

TOLEDO METCALF LGT RAIN  38  31  76 SW10      29.72F
6HR MIN TEMP:  32; 6HR MAX TEMP:  39; 6HR PCP: TRACE;

LIMA           CLOUDY    42  32  67 SW13      29.73F
6HR MIN TEMP:  37; 6HR MAX TEMP:  42;


$$
AND FOR LAKE MICHIGAN COASTAL AND OPEN LAKE BUOY OBSERVATIONS

STATION/POSITION TEMP    WIND        PRES    VSBY  WAVE
                 AIR SEA DIR/SP/G                  HT/PER
                 (F)     (DEG/KT/KT) (MB)    (MI)  (FT/S)
CALUMET HARBOR    34     300/ 16/ 22   N/A
MICHIGAN CITY     33     300/ 27/ 32   N/A
SAINT JOSEPH      33     320/ 17/ 24 1011.9R

$$
&&



USA.gov is the U.S. government's official web portal to all federal, state and local government web resources and services.